Location: Asbacherhof
(48.8543°N, 10.7903°E)
Time: 22:50:09
(UTC+00:00)

BREEZE-M DEB (TANK) - Pass Details

Date: 26 May 2022
Orbit: 321 x 13841 km, 49.6° (Epoch: 29 June)

Event Time Altitude Azimuth Distance (km) Brightness Sun altitude
Rises 00:49:18 0° 250° (WSW) 9,955 8.8 -16.9°
Reaches altitude 10° 00:58:57 10° 251° (WSW) 6,701 7.9 -16.2°
Maximum altitude 01:13:39 85° 167° (SSE) 1,094 4.2 -15.1°
Drops below altitude 10° 01:17:41 10° 78° (ENE) 1,985 6.2 -14.8°
Sets 01:19:03 0° 78° (ENE) 2,602 6.9 -14.7°
